Mineralnyye Vody Airport

Jump to: basic info | weather | frequencies | runways | comments

Related pages: nearby airports | nearby navaids | notams | map

Basic information (top)

Codes: MRV URMM
Location: lon 44.225101, lat 43.081902, elev 1,054 ft / 321 m msl
Status: medium_airport
Scheduled airline service: yes
Links: Wikipedia Mobile

Weather (top)

Current conditions (rec'd 2014/04/25 00:00Z):

URMM 250000Z 13006MPS 9999 OVC036 07/04 Q1022 R12/290250 NOSIG RMK QFE738/0984

Airport forecast (rec'd 2014/04/24 00:21Z):

TAF URMM 242300Z 2500/2524 12007G12MPS 9999 BKN030CB 530002 
      TEMPO 2500/2506 VRB02MPS 1200 SHRA BKN004 BKN010CB 
     FM251800 12003G08MPS 3000 BR BKN007 
      TEMPO 2518/2524 VRB02MPS 1200 BKN004

Frequencies (top)

Verify before use: may be inaccurate or out of date.

APP: 119.3 MHz (APP)
ATIS: 127.4 MHz (ATIS)
GND: 121.9 MHz (TAXIING)
RDR: 120.7 MHz (KRUG)
TWR: 128 MHz (START)

Runways (top)

12/30: 12,795 x 197 ft (3,900 x 60 m) — paved — lighted

Latest comments (top)

No comments yet for Mineralnyye Vody Airport

More... (top)

See also NOTAMs and nearby airports and navaids, or visit the Mineralnyye Vody Airport page at the main OurAirports website..